sat.trackr.live / text

‹ back to catalog

FLOCK 4H-25

NORAD 66728 · 2025-276BQ

PAYLOAD ACTIVE UNKNOWN

§ Identity

Operator
Country
US
Launch date
2025-11-28
Launch site
AFWTR
Launch vehicle
Mass (kg)
RCS (m²)

Purposes: earth_obs

External: N2YO · Heavens-Above · Gunter

§ Orbital elements

Epoch: 2026-09-19T10:18:38.913120Z

Period
94.64 min
Inclination
97.4113°
Eccentricity
0.0001159
Mean motion
15.21628074 rev/d
Perigee alt
500.1 km
Apogee alt
501.7 km
Semi-major
6,879.1 km
B*
1.8580e-4
RAAN
334.7608°
Arg perigee
78.6258°
Mean anomaly
281.5108°
Rev number
4,404

§ Raw data

FLOCK 4H-251 66728U 25276BQ  26262.42961705  .00004127  00000+0  18580-3 0  99912 66728  97.4113 334.7608 0001159  78.6258 281.5108 15.21628074 44042

JSON: /api/v1/satellites/66728 · /tle

For live sub-satellite position, see the globe view (requires WebGL).

§ Visibility from observer

Set your observer location to see the next 7 days of passes ≥ 10°. The values pass through the URL so the page stays shareable.

No JS? Fill the form by hand. The geolocation button needs JavaScript.